| time (UTC) | temp F | wind direction | speed MPH | gust MPH | rain 1hr in | rain 24hr in | rain mn in | humidity % | barometer mb |
| 20260508063036 | 54 | 101 | 3.0 | 12.0 | 0.00 | 0.00 | 0.00 | 79 | 1013.0 |
| 20260508061537 | 54 | 104 | 7.0 | 14.0 | 0.00 | 0.00 | 0.00 | 79 | 1012.8 |
| 20260508060035 | 54 | 72 | 7.0 | 15.0 | 0.00 | 0.00 | 0.00 | 79 | 1012.9 |
| 20260508054535 | 53 | 117 | 4.0 | 12.0 | 0.00 | 0.00 | 0.00 | 80 | 1012.9 |
| 20260508053035 | 52 | 124 | 5.0 | 12.0 | 0.00 | 0.00 | 0.00 | 81 | 1012.9 |
| 20260508051533 | 51 | 98 | 2.0 | 10.0 | 0.00 | 0.00 | 0.00 | 82 | 1012.9 |
| 20260508050032 | 51 | 92 | 4.0 | 11.0 | 0.00 | 0.00 | 0.00 | 82 | 1012.8 |
| 20260508044532 | 51 | 150 | 3.0 | 10.0 | 0.00 | 0.00 | 0.00 | 82 | 1012.8 |
| 20260508043031 | 50 | 33 | 5.0 | 9.0 | 0.00 | 0.00 | 0.00 | 83 | 1012.7 |
| 20260508041530 | 50 | 38 | 7.0 | 10.0 | 0.00 | 0.00 | 0.00 | 82 | 1012.7 |
| 20260508040037 | 50 | 50 | 4.0 | 10.0 | 0.00 | 0.00 | 0.00 | 82 | 1012.6 |
| 20260508034529 | 50 | 110 | 3.0 | 8.0 | 0.00 | 0.00 | 0.00 | 82 | 1012.4 |
| 20260508033027 | 49 | 63 | 1.0 | 5.0 | 0.00 | 0.00 | 0.00 | 82 | 1012.5 |
| 20260508031530 | 49 | 75 | 2.0 | 7.0 | 0.00 | 0.00 | 0.00 | 82 | 1012.4 |
| 20260508030024 | 50 | 120 | 0.0 | 3.0 | 0.00 | 0.00 | 0.00 | 81 | 1012.4 |
| 20260508023027 | 50 | 67 | 4.0 | 7.0 | 0.00 | 0.00 | 0.00 | 81 | 1012.1 |
| 20260508021519 | 50 | 44 | 5.0 | 8.0 | 0.00 | 0.00 | 0.00 | 81 | 1012.1 |
| 20260508020017 | 50 | 68 | 3.0 | 6.0 | 0.00 | 0.00 | 0.00 | 81 | 1012.1 |
| 20260508014532 | 50 | 57 | 4.0 | 7.0 | 0.00 | 0.00 | 0.00 | 81 | 1012.1 |
| 20260508013014 | 51 | 56 | 5.0 | 8.0 | 0.00 | 0.00 | 0.00 | 80 | 1012.2 |
| 20260508011509 | 51 | 19 | 3.0 | 8.0 | 0.00 | 0.00 | 0.00 | 80 | 1012.4 |
| 20260508010009 | 51 | 52 | 5.0 | 9.0 | 0.00 | 0.00 | 0.00 | 80 | 1012.4 |
| 20260508004513 | 51 | 63 | 3.0 | 7.0 | 0.00 | 0.00 | 0.00 | 80 | 1012.4 |
| 20260508003016 | 52 | 114 | 1.0 | 6.0 | 0.00 | 0.00 | 0.00 | 80 | 1012.5 |
| 20260508001502 | 52 | 65 | 3.0 | 5.0 | 0.00 | 0.00 | 0.00 | 80 | 1012.6 |
| 20260508000000 | 53 | 83 | 1.0 | 6.0 | 0.00 | 0.00 | 0.00 | 79 | 1012.4 |
| 20260507234558 | 53 | 153 | 0.0 | 6.0 | 0.00 | 0.00 | 0.00 | 79 | 1012.5 |
| 20260507233055 | 53 | 352 | 0.0 | 3.0 | 0.00 | 0.00 | 0.00 | 79 | 1012.6 |
| 20260507231552 | 54 | 38 | 0.0 | 2.0 | 0.00 | 0.00 | 0.00 | 78 | 1012.8 |
| 20260507230051 | 54 | 121 | 1.0 | 5.0 | 0.00 | 0.00 | 0.00 | 78 | 1013.0 |
| 20260507224602 | 55 | 350 | 0.0 | 7.0 | 0.00 | 0.00 | 0.00 | 78 | 1012.8 |
| 20260507223054 | 55 | 56 | 2.0 | 7.0 | 0.00 | 0.00 | 0.00 | 77 | 1012.8 |
| 20260507221544 | 56 | 60 | 1.0 | 5.0 | 0.00 | 0.00 | 0.00 | 76 | 1012.9 |
| 20260507220042 | 57 | 1 | 3.0 | 7.0 | 0.00 | 0.00 | 0.00 | 76 | 1013.0 |
| 20260507214539 | 57 | 75 | 4.0 | 9.0 | 0.00 | 0.00 | 0.00 | 75 | 1012.9 |
| 20260507213040 | 58 | 84 | 4.0 | 8.0 | 0.00 | 0.00 | 0.00 | 74 | 1012.9 |
| 20260507211546 | 58 | 82 | 3.0 | 11.0 | 0.00 | 0.00 | 0.00 | 74 | 1012.9 |
| 20260507210035 | 59 | 98 | 5.0 | 10.0 | 0.00 | 0.00 | 0.00 | 73 | 1012.9 |
| 20260507204531 | 59 | 55 | 4.0 | 10.0 | 0.00 | 0.00 | 0.00 | 71 | 1012.8 |
| 20260507203030 | 60 | 77 | 4.0 | 10.0 | 0.00 | 0.00 | 0.00 | 70 | 1012.7 |
| 20260507201531 | 60 | 62 | 4.0 | 10.0 | 0.00 | 0.00 | 0.00 | 68 | 1012.7 |
| 20260507200028 | 60 | 79 | 4.0 | 8.0 | 0.00 | 0.00 | 0.00 | 66 | 1012.6 |
| 20260507194530 | 61 | 86 | 3.0 | 6.0 | 0.00 | 0.00 | 0.00 | 62 | 1012.6 |
| 20260507193033 | 62 | 70 | 4.0 | 10.0 | 0.00 | 0.00 | 0.00 | 59 | 1012.5 |
| 20260507191527 | 62 | 62 | 3.0 | 9.0 | 0.00 | 0.00 | 0.00 | 57 | 1012.5 |
| 20260507190031 | 63 | 100 | 4.0 | 7.0 | 0.00 | 0.00 | 0.00 | 56 | 1012.4 |
| 20260507184526 | 64 | 91 | 3.0 | 9.0 | 0.00 | 0.00 | 0.00 | 55 | 1012.5 |
| 20260507183025 | 64 | 60 | 3.0 | 8.0 | 0.00 | 0.00 | 0.00 | 54 | 1012.4 |
| 20260507181524 | 65 | 83 | 3.0 | 6.0 | 0.00 | 0.00 | 0.00 | 52 | 1012.2 |
| 20260507180023 | 66 | 56 | 4.0 | 9.0 | 0.00 | 0.00 | 0.00 | 50 | 1012.0 |
| 20260507174523 | 66 | 97 | 3.0 | 9.0 | 0.00 | 0.00 | 0.00 | 49 | 1012.0 |
| 20260507173024 | 67 | 40 | 3.0 | 9.0 | 0.00 | 0.00 | 0.00 | 48 | 1012.0 |
| 20260507171521 | 68 | 96 | 3.0 | 12.0 | 0.00 | 0.00 | 0.00 | 47 | 1011.9 |
| 20260507170022 | 69 | 71 | 5.0 | 11.0 | 0.00 | 0.00 | 0.00 | 44 | 1011.8 |
| 20260507164521 | 70 | 125 | 4.0 | 11.0 | 0.00 | 0.00 | 0.00 | 43 | 1011.6 |
| 20260507163024 | 70 | 75 | 5.0 | 15.0 | 0.00 | 0.00 | 0.00 | 41 | 1011.6 |
| 20260507161519 | 71 | 88 | 6.0 | 11.0 | 0.00 | 0.00 | 0.00 | 40 | 1011.5 |
| 20260507160019 | 72 | 30 | 7.0 | 14.0 | 0.00 | 0.00 | 0.00 | 38 | 1011.5 |
| 20260507154518 | 73 | 71 | 9.0 | 17.0 | 0.00 | 0.00 | 0.00 | 35 | 1011.3 |
| 20260507153020 | 74 | 82 | 7.0 | 19.0 | 0.00 | 0.00 | 0.00 | 36 | 1011.3 |
| 20260507151519 | 74 | 63 | 7.0 | 19.0 | 0.00 | 0.00 | 0.00 | 37 | 1011.3 |
| 20260507150016 | 74 | 121 | 7.0 | 17.0 | 0.00 | 0.00 | 0.00 | 37 | 1011.4 |
| 20260507144515 | 74 | 69 | 6.0 | 14.0 | 0.00 | 0.00 | 0.00 | 37 | 1011.4 |
| 20260507143015 | 74 | 58 | 8.0 | 15.0 | 0.00 | 0.00 | 0.00 | 36 | 1011.5 |
| 20260507141513 | 75 | 135 | 5.0 | 17.0 | 0.00 | 0.00 | 0.00 | 35 | 1011.6 |
| 20260507140023 | 76 | 56 | 10.0 | 17.0 | 0.00 | 0.00 | 0.00 | 33 | 1011.7 |
| 20260507134512 | 76 | 88 | 6.0 | 17.0 | 0.00 | 0.00 | 0.00 | 33 | 1011.7 |
| 20260507133011 | 76 | 32 | 9.0 | 16.0 | 0.00 | 0.00 | 0.00 | 33 | 1011.6 |
| 20260507131510 | 76 | 65 | 8.0 | 15.0 | 0.00 | 0.00 | 0.00 | 34 | 1011.8 |
| 20260507130008 | 76 | 93 | 7.0 | 16.0 | 0.00 | 0.00 | 0.00 | 32 | 1011.8 |
| 20260507124513 | 76 | 123 | 8.0 | 17.0 | 0.00 | 0.00 | 0.00 | 32 | 1011.9 |
| 20260507123006 | 77 | 94 | 5.0 | 17.0 | 0.00 | 0.00 | 0.00 | 33 | 1012.0 |
| 20260507121508 | 77 | 40 | 7.0 | 14.0 | 0.00 | 0.00 | 0.00 | 33 | 1012.1 |
| 20260507120004 | 76 | 42 | 11.0 | 17.0 | 0.00 | 0.00 | 0.00 | 31 | 1012.4 |
| 20260507114501 | 77 | 100 | 9.0 | 19.0 | 0.00 | 0.00 | 0.00 | 32 | 1012.4 |
| 20260507113103 | 76 | 37 | 7.0 | 18.0 | 0.00 | 0.00 | 0.00 | 34 | 1012.5 |
| 20260507111559 | 76 | 56 | 9.0 | 17.0 | 0.00 | 0.00 | 0.00 | 33 | 1012.5 |
| 20260507110100 | 76 | 137 | 9.0 | 17.0 | 0.00 | 0.00 | 0.00 | 34 | 1012.6 |
| 20260507104557 | 75 | 108 | 9.0 | 20.0 | 0.00 | 0.00 | 0.00 | 34 | 1012.5 |
| 20260507103056 | 76 | 102 | 12.0 | 18.0 | 0.00 | 0.00 | 0.00 | 33 | 1012.6 |
| 20260507101605 | 75 | 63 | 8.0 | 17.0 | 0.00 | 0.00 | 0.00 | 34 | 1012.7 |
| 20260507100055 | 76 | 67 | 9.0 | 19.0 | 0.00 | 0.00 | 0.00 | 33 | 1012.9 |
| 20260507094559 | 75 | 35 | 8.0 | 18.0 | 0.00 | 0.00 | 0.00 | 35 | 1012.9 |
| 20260507093050 | 75 | 54 | 7.0 | 14.0 | 0.00 | 0.00 | 0.00 | 35 | 1013.0 |
| 20260507091559 | 74 | 88 | 9.0 | 16.0 | 0.00 | 0.00 | 0.00 | 35 | 1013.0 |
| 20260507090107 | 73 | 100 | 7.0 | 12.0 | 0.00 | 0.00 | 0.00 | 38 | 1013.0 |
| 20260507084545 | 74 | 80 | 10.0 | 16.0 | 0.00 | 0.00 | 0.00 | 37 | 1013.0 |
| 20260507083045 | 73 | 87 | 6.0 | 15.0 | 0.00 | 0.00 | 0.00 | 37 | 1013.1 |
| 20260507081551 | 73 | 113 | 7.0 | 15.0 | 0.00 | 0.00 | 0.00 | 38 | 1013.1 |
| 20260507080039 | 72 | 58 | 8.0 | 16.0 | 0.00 | 0.00 | 0.00 | 40 | 1013.1 |
| 20260507074540 | 71 | 101 | 6.0 | 12.0 | 0.00 | 0.00 | 0.00 | 42 | 1013.1 |
| 20260507073040 | 70 | 67 | 6.0 | 13.0 | 0.00 | 0.00 | 0.00 | 41 | 1013.2 |
| 20260507071532 | 70 | 63 | 8.0 | 15.0 | 0.00 | 0.00 | 0.00 | 42 | 1013.2 |
| 20260507070029 | 69 | 96 | 3.0 | 10.0 | 0.00 | 0.00 | 0.00 | 45 | 1013.2 |
| 20260507064526 | 67 | 81 | 6.0 | 14.0 | 0.00 | 0.00 | 0.00 | 45 | 1013.1 |